FW1313 Weather Reports


Display with metric or nautical units.
time (UTC)temp
F
wind
direction
speed
MPH
gust
MPH
rain 1hr
in
rain 24hr
in
rain mn
in
humidity
%
barometer
mb
20260508003402 66 167 0.0 1.0 0.00 0.00 0.00 37 1018.4
20260508000359 67 201 0.0 0.0 0.00 0.00 0.00 42 1018.3
20260507233359 68 186 0.0 0.0 0.00 0.00 0.00 42 1018.0
20260507230359 68 201 0.0 0.0 0.00 0.00 0.00 40 1017.8
20260507223359 68 260 0.0 0.0 0.00 0.00 0.00 41 1017.7
20260507220359 68 225 0.0 1.0 0.00 0.00 0.00 38 1017.8
20260507213359 69 198 0.0 1.0 0.00 0.00 0.00 39 1017.9
20260507210359 69 218 0.0 0.0 0.00 0.00 0.00 34 1018.0
20260507203359 71 198 0.0 1.0 0.00 0.00 0.00 34 1017.8
20260507200359 71 145 0.0 0.0 0.00 0.00 0.00 34 1017.7
20260507193402 71 252 0.0 1.0 0.00 0.00 0.00 39 1017.6
20260507190359 72 266 0.0 0.0 0.00 0.00 0.00 34 1017.8
20260507183359 71 215 0.0 0.0 0.00 0.00 0.00 37 1017.8
20260507180359 69 68 0.0 0.0 0.00 0.00 0.00 36 1017.8
20260507173359 66 318 0.0 1.0 0.00 0.00 0.00 36 1017.8
20260507170402 64 313 0.0 0.0 0.00 0.00 0.00 38 1017.5
20260507163359 62 256 0.0 0.0 0.00 0.00 0.00 38 1017.7
20260507160359 59 285 0.0 0.0 0.00 0.00 0.00 39 1017.8
20260507153402 59 277 0.0 0.0 0.00 0.00 0.00 41 1017.7
20260507150359 58 1 0.0 0.0 0.00 0.00 0.00 38 1017.8
20260507143359 57 27 0.0 0.0 0.00 0.00 0.00 42 1017.8
20260507140359 55 27 0.0 0.0 0.00 0.00 0.00 44 1017.8
20260507133402 55 29 0.0 0.0 0.00 0.00 0.00 44 1017.6
20260507130359 54 26 0.0 0.0 0.00 0.00 0.00 45 1017.4
20260507123359 54 18 0.0 0.0 0.00 0.00 0.00 45 1017.5
20260507120359 54 5 0.0 0.0 0.00 0.00 0.00 47 1017.8
20260507113402 54 20 0.0 0.0 0.00 0.00 0.00 48 1018.0
20260507110359 54 19 0.0 0.0 0.00 0.00 0.00 50 1018.3
20260507103359 54 1 0.0 0.0 0.00 0.00 0.00 52 1018.4
20260507100359 53 1 0.0 0.0 0.00 0.00 0.00 53 1018.6
20260507093402 54 351 0.0 0.0 0.00 0.00 0.00 54 1019.0
20260507090359 54 12 0.0 0.0 0.00 0.00 0.00 57 1019.5
20260507083359 54 0 0.0 0.0 0.00 0.00 0.00 56 1019.8
20260507080359 54 347 0.0 0.0 0.00 0.00 0.00 57 1020.2
20260507073359 53 353 0.0 0.0 0.00 0.00 0.00 56 1020.4
20260507070359 53 341 0.0 0.0 0.00 0.00 0.00 48 1020.7
20260507063359 53 353 0.0 0.0 0.00 0.00 0.00 44 1021.0
20260507060359 53 340 0.0 0.0 0.00 0.00 0.00 48 1021.2
20260507053359 53 340 0.0 0.0 0.00 0.00 0.00 56 1021.2
20260507050359 54 356 0.0 0.0 0.00 0.00 0.00 41 1021.3
20260507043359 54 356 0.0 0.0 0.00 0.00 0.00 45 1021.1
20260507040359 52 355 0.0 0.0 0.00 0.00 0.00 58 1020.6
20260507033359 54 355 0.0 0.0 0.00 0.00 0.00 55 1020.4
20260507030359 55 308 0.0 0.0 0.00 0.00 0.00 52 1019.9
20260507023359 55 311 0.0 0.0 0.00 0.00 0.00 55 1019.4
20260507020359 53 294 0.0 0.0 0.00 0.00 0.00 77 1019.1
20260507013359 55 227 0.0 0.0 0.00 0.00 0.00 73 1018.8
20260507010359 56 270 0.0 0.0 0.00 0.00 0.00 70 1018.5